TimeCST,TemperatureF,Dew PointF,Humidity,Sea Level PressureIn,VisibilityMPH,Wind Direction,Wind SpeedMPH,Gust SpeedMPH,PrecipitationIn,Events,Conditions,WindDirDegrees,DateUTC
12:15 AM,41.0,24.8,53,30.00,10.0,SE,23.0,28.8,N/A,,Overcast,140,2013-02-20 06:15:00
12:35 AM,41.0,24.8,53,29.99,10.0,SE,25.3,29.9,N/A,,Overcast,140,2013-02-20 06:35:00
12:55 AM,41.0,26.6,57,30.00,10.0,SSE,28.8,36.8,N/A,,Overcast,160,2013-02-20 06:55:00
1:15 AM,37.4,30.2,75,29.99,7.0,SSE,20.7,32.2,N/A,,Overcast,150,2013-02-20 07:15:00
1:35 AM,41.0,28.4,61,29.98,10.0,SSE,28.8,35.7,N/A,,Overcast,150,2013-02-20 07:35:00
1:55 AM,41.0,26.6,57,29.98,10.0,SSE,24.2,32.2,N/A,,Overcast,150,2013-02-20 07:55:00
2:15 AM,37.4,28.4,70,29.98,7.0,SSE,20.7,38.0,N/A,,Overcast,150,2013-02-20 08:15:00
2:55 AM,35.6,32.0,87,29.96,4.0,SE,21.9,27.6,N/A,,Overcast,140,2013-02-20 08:55:00
3:15 AM,35.6,32.0,87,29.95,10.0,SE,18.4,25.3,N/A,,Overcast,140,2013-02-20 09:15:00
3:35 AM,35.6,32.0,87,29.94,10.0,SE,18.4,24.2,N/A,,Overcast,140,2013-02-20 09:35:00
3:55 AM,33.8,32.0,93,29.93,7.0,SE,21.9,-,N/A,,Overcast,130,2013-02-20 09:55:00
4:15 AM,33.8,32.0,93,29.92,5.0,SE,19.6,-,N/A,,Overcast,140,2013-02-20 10:15:00
4:35 AM,33.8,32.0,93,29.91,3.0,SE,21.9,26.5,N/A,,Overcast,130,2013-02-20 10:35:00
4:55 AM,33.8,32.0,93,29.92,5.0,SE,18.4,-,N/A,,Overcast,130,2013-02-20 10:55:00
5:15 AM,33.8,32.0,93,29.92,5.0,SE,20.7,-,0.01,,Overcast,130,2013-02-20 11:15:00
5:35 AM,33.8,33.8,100,29.93,5.0,SE,17.3,-,0.01,,Overcast,140,2013-02-20 11:35:00
5:55 AM,33.8,32.0,93,29.93,3.0,SE,16.1,-,0.01,,Overcast,140,2013-02-20 11:55:00
6:15 AM,33.8,32.0,93,29.93,2.5,SE,18.4,-,0.01,,Overcast,140,2013-02-20 12:15:00
6:35 AM,33.8,32.0,93,29.92,5.0,SE,17.3,-,0.02,,Overcast,140,2013-02-20 12:35:00
6:55 AM,33.8,32.0,93,29.93,3.0,SE,19.6,-,0.03,,Overcast,140,2013-02-20 12:55:00
7:15 AM,33.8,32.0,93,29.93,4.0,SE,18.4,-,N/A,,Overcast,140,2013-02-20 13:15:00
7:35 AM,33.8,32.0,93,29.93,4.0,SE,19.6,25.3,0.01,,Overcast,140,2013-02-20 13:35:00
7:55 AM,33.8,32.0,93,29.92,3.0,SE,19.6,25.3,0.01,,Overcast,140,2013-02-20 13:55:00
8:15 AM,33.8,33.8,100,29.92,4.0,SE,19.6,-,N/A,,Overcast,140,2013-02-20 14:15:00
8:35 AM,33.8,33.8,100,29.92,4.0,SE,23.0,27.6,N/A,,Overcast,140,2013-02-20 14:35:00
8:55 AM,33.8,33.8,100,29.92,4.0,SE,19.6,24.2,N/A,,Overcast,140,2013-02-20 14:55:00
9:15 AM,33.8,33.8,100,29.92,2.0,SE,20.7,26.5,N/A,,Overcast,140,2013-02-20 15:15:00
9:35 AM,33.8,33.8,100,29.92,0.2,SE,20.7,24.2,N/A,,Overcast,140,2013-02-20 15:35:00
9:55 AM,33.8,33.8,100,29.91,0.2,SE,19.6,-,N/A,,Overcast,140,2013-02-20 15:55:00
10:15 AM,35.6,33.8,93,29.90,0.2,SE,18.4,21.9,N/A,,Overcast,140,2013-02-20 16:15:00
10:35 AM,35.6,35.6,100,29.90,0.2,SSE,18.4,26.5,N/A,,Overcast,150,2013-02-20 16:35:00
10:55 AM,37.4,35.6,93,29.89,2.0,SSE,25.3,31.1,N/A,,Overcast,150,2013-02-20 16:55:00
11:15 AM,37.4,35.6,93,29.90,4.0,SSE,24.2,31.1,N/A,,Overcast,160,2013-02-20 17:15:00
11:35 AM,37.4,35.6,93,29.89,5.0,SSE,26.5,34.5,N/A,,Overcast,160,2013-02-20 17:35:00
11:55 AM,37.4,35.6,93,29.89,5.0,SSE,24.2,33.4,N/A,,Overcast,160,2013-02-20 17:55:00
12:15 PM,37.4,35.6,93,29.88,7.0,SSE,28.8,32.2,N/A,,Overcast,160,2013-02-20 18:15:00
12:35 PM,37.4,35.6,93,29.87,7.0,SSE,25.3,34.5,N/A,,Overcast,160,2013-02-20 18:35:00
12:55 PM,37.4,35.6,93,29.86,10.0,SSE,23.0,32.2,N/A,,Overcast,160,2013-02-20 18:55:00
1:15 PM,39.2,35.6,87,29.85,10.0,SSE,25.3,33.4,N/A,,Overcast,150,2013-02-20 19:15:00
1:35 PM,39.2,35.6,87,29.83,10.0,SSE,28.8,-,N/A,,Overcast,150,2013-02-20 19:35:00
1:55 PM,37.4,35.6,93,29.82,10.0,SSE,29.9,38.0,N/A,,Overcast,150,2013-02-20 19:55:00
2:15 PM,37.4,33.8,87,29.81,10.0,SSE,25.3,31.1,N/A,,Overcast,150,2013-02-20 20:15:00
2:35 PM,37.4,33.8,87,29.80,10.0,SSE,25.3,31.1,N/A,,Overcast,150,2013-02-20 20:35:00
2:55 PM,37.4,33.8,87,29.80,10.0,SSE,29.9,34.5,N/A,,Overcast,160,2013-02-20 20:55:00
3:15 PM,37.4,33.8,87,29.79,10.0,SSE,25.3,32.2,N/A,,Overcast,150,2013-02-20 21:15:00
3:35 PM,35.6,33.8,93,29.79,7.0,SSE,21.9,28.8,N/A,,Overcast,150,2013-02-20 21:35:00
3:55 PM,35.6,33.8,93,29.79,10.0,SSE,25.3,34.5,N/A,,Overcast,150,2013-02-20 21:55:00
4:15 PM,35.6,33.8,93,29.79,10.0,SSE,24.2,29.9,N/A,,Overcast,160,2013-02-20 22:15:00
4:35 PM,35.6,33.8,93,29.78,10.0,SE,24.2,31.1,N/A,,Overcast,140,2013-02-20 22:35:00
5:15 PM,35.6,33.8,93,29.78,5.0,SE,20.7,29.9,N/A,,Overcast,140,2013-02-20 23:15:00
5:35 PM,33.8,33.8,100,29.76,3.0,SSE,28.8,33.4,N/A,,Overcast,150,2013-02-20 23:35:00
5:55 PM,33.8,33.8,100,29.77,2.0,SSE,23.0,27.6,N/A,,Overcast,150,2013-02-20 23:55:00
6:15 PM,33.8,33.8,100,29.77,3.0,SE,20.7,29.9,N/A,,Overcast,140,2013-02-21 00:15:00
6:35 PM,33.8,33.8,100,29.78,4.0,SE,25.3,29.9,N/A,,Overcast,140,2013-02-21 00:35:00
6:55 PM,33.8,33.8,100,29.78,4.0,SE,21.9,-,N/A,,Overcast,140,2013-02-21 00:55:00
7:15 PM,33.8,33.8,100,29.78,3.0,SE,17.3,25.3,N/A,,Overcast,140,2013-02-21 01:15:00
7:35 PM,33.8,32.0,93,29.77,4.0,SE,23.0,-,N/A,,Overcast,140,2013-02-21 01:35:00
7:55 PM,33.8,32.0,93,29.78,5.0,SE,21.9,27.6,N/A,,Overcast,130,2013-02-21 01:55:00
8:15 PM,33.8,32.0,93,29.78,10.0,SE,21.9,-,N/A,,Overcast,140,2013-02-21 02:15:00
8:35 PM,33.8,32.0,93,29.76,5.0,SE,23.0,33.4,N/A,,Overcast,130,2013-02-21 02:35:00
9:15 PM,32.0,32.0,100,29.78,7.0,ESE,19.6,24.2,N/A,,Overcast,120,2013-02-21 03:15:00
9:35 PM,32.0,32.0,100,29.79,5.0,ESE,19.6,25.3,N/A,,Overcast,120,2013-02-21 03:35:00
9:55 PM,32.0,32.0,100,29.79,4.0,ESE,16.1,19.6,N/A,,Overcast,120,2013-02-21 03:55:00
10:35 PM,32.0,32.0,100,29.80,4.0,ESE,16.1,21.9,N/A,,Overcast,120,2013-02-21 04:35:00
10:55 PM,32.0,32.0,100,29.80,1.8,ESE,19.6,23.0,N/A,,Overcast,120,2013-02-21 04:55:00
11:15 PM,32.0,32.0,100,29.81,2.0,ESE,13.8,-,N/A,,Overcast,110,2013-02-21 05:15:00
11:35 PM,32.0,32.0,100,29.79,2.0,ESE,15.0,20.7,N/A,,Overcast,110,2013-02-21 05:35:00
11:55 PM,32.0,32.0,100,29.78,2.5,ESE,13.8,-,N/A,,Overcast,110,2013-02-21 05:55:00